Regional Weather Roundup
Issued by NWS

Home | Current Version | Previous Version | Text Only | Print | Product List | Glossary On
Versions: 1 2 3 4 5 6 7 8 9 10 11 12 13 14 15 16 17 18 19 20 21 22 23 24 25 26 27 28 29 30 31 32 33 34 35 36 37 38 39 40 41 42 43 44 45 46 47 48 49 50
162
ASUS43 KLSX 300007
RWRMO

WEATHER SUMMARY FOR MISSOURI
NATIONAL WEATHER SERVICE SPRINGFIELD MO
700 PM CDT FRI JUL 29 2016

NOTE: "FAIR" INDICATES FEW OR NO CLOUDS BELOW 12,000 FEET WITH NO
       SIGNIFICANT WEATHER AND/OR OBSTRUCTIONS TO VISIBILITY.
       CURRENT SKY AND/OR WEATHER CONDITIONS ARE NOT AVAILABLE FOR
       CHILLICOTHE AND FARMINGTON.

MOZ001>031-035>038-043-044-053-054-300100-
...NORTHERN AND WESTERN MISSOURI...

CITY           SKY/WX    TMP DP  RH WIND       PRES   REMARKS
KANSAS CTY INT MOSUNNY   81  62  52 N8        29.97F
6HR MIN TEMP:  80; 6HR MAX TEMP:  85;

KANSAS C DTWN  SUNNY     84  63  49 N8        29.95F
6HR MIN TEMP:  82; 6HR MAX TEMP:  87;

LEE`S SUMMIT   SUNNY     82  64  54 N10       29.97F
6HR MIN TEMP:  80; 6HR MAX TEMP:  86;

ST JOSEPH      SUNNY     81  60  48 NW9       29.97F
6HR MIN TEMP:  80; 6HR MAX TEMP:  84;

CHILLICOTHE      N/A     83  59  44 NW7       29.96F
6HR MIN TEMP:  81; 6HR MAX TEMP:  86;

KIRKSVILLE     SUNNY     78  61  55 N6        29.96F
6HR MIN TEMP:  78; 6HR MAX TEMP:  83;


$$
MOZ066>068-077>081-088>096-101>105-300100-
...SOUTHWEST MISSOURI...

CITY           SKY/WX    TMP DP  RH WIND       PRES   REMARKS
SPRINGFIELD    SUNNY     83  67  58 N10       29.95F
6HR MIN TEMP:  81; 6HR MAX TEMP:  88;

JOPLIN         SUNNY     85  69  58 N8        29.95F
6HR MIN TEMP:  83; 6HR MAX TEMP:  88;

BRANSON        MOSUNNY   79  72  78 CALM      29.97F

$$
MOZ032>034-039>042-045>050-055>058-069>072-300100-
...CENTRAL MISSOURI...

CITY           SKY/WX    TMP DP  RH WIND       PRES   REMARKS
COLUMBIA       SUNNY     81  66  60 NW10      29.95F
6HR MIN TEMP:  81; 6HR MAX TEMP:  84;

JEFFERSON CITY SUNNY     83  68  60 NW9       29.93S
6HR MIN TEMP:  79; 6HR MAX TEMP:  86;

ROLLA          MOSUNNY   80  70  71 W8        29.94F
6HR MIN TEMP:  68; 6HR MAX TEMP:  84; 6HR PCP:  0.18;

SEDALIA        MOSUNNY   83  68  60 N8        29.97S
6HR MIN TEMP:  81; 6HR MAX TEMP:  85;

WHITEMAN AFB   MOSUNNY   82  67  62 N9        29.94F
OSAGE BEACH    MOSUNNY   78  72  81 SW5       29.96S

$$
MOZ051-052-059>065-300100-
...EAST CENTRAL MISSOURI...

CITY           SKY/WX    TMP DP  RH WIND       PRES   REMARKS
ST LOUIS INTL  PTSUNNY   83  68  60 N12       29.92S
6HR MIN TEMP:  82; 6HR MAX TEMP:  88;

SPIRIT OF STL  CLOUDY    83  70  64 N9        29.90S
6HR MIN TEMP:  83; 6HR MAX TEMP:  88;

ST CHARLES     MOSUNNY   82  70  66 N8        29.90S
6HR MIN TEMP:  81; 6HR MAX TEMP:  86;


$$
MOZ072>076-082>087-097>100-106>115-300100-
...SOUTH CENTRAL AND SOUTHEAST MISSOURI...

CITY           SKY/WX    TMP DP  RH WIND       PRES   REMARKS
CAPE GIRARDEAU LGT RAIN  73  69  87 S7        29.90F
6HR MIN TEMP:  72; 6HR MAX TEMP:  87; 6HR PCP:  0.05;

FARMINGTON     CLOUDY    79  74  84 CALM      29.94F
6HR MIN TEMP:  78; 6HR MAX TEMP:  85; 6HR PCP:  0.02;

POPLAR BLUFF   LGT RAIN  73  70  90 NW3       29.90F FOG
6HR MIN TEMP:  72; 6HR MAX TEMP:  87; 6HR PCP:  0.38;

WEST PLAINS    CLOUDY    75  68  78 SW3       29.98F
6HR MIN TEMP:  70; 6HR MAX TEMP:  88; 6HR PCP:  0.11;


$$



USA.gov is the U.S. government's official web portal to all federal, state and local government web resources and services.